STARLINK-11396, 62015

Orbit data source: Space-Track

STARLINK-11396, 62015 is a payload satellite owned by SpaceX/Seattle (US) in LEO that was launched on Mon, 18 Nov 2024 UTC via an FALCON 9 launch vehicle from the Air Force Western Test Range (AFWTR). Payload-class satellites include a variety of spacecraft equipped with specific instruments for various scientific and technological missions. These include communications satellites like Starlink; space stations such as the ISS; scientific satellites like the Hubble; Earth observation satellites from companies like Planet Labs, Umbra, and HawkEye 360; GPS; miniature CubeSats for education and research; and military/defense satellites.

Loading next visibility...
Identifier
62015, 2024-213H
Orbit
LEO
Country
Flag of USUS
Related business
Manufacturer
SpaceX/Seattle
Mission
Operational Commercial Communications
Bus & Motor
STARLINK V2MD, Unknown motor
Mass
960 kg wet, ~910 kg dry
Launch date (UTC)
2024-11-18 (1 year ago)
Launch vehicle
FALCON 9
Launch site
Air Force Western Test Range (AFWTR)
Object type
Payload
Rocket body
Debris
Shape & HBR
Box + 2 Pan, 18.1 m
Radar Cross Section
36.964 m², Large (>1 m²)

Expand to show TLE details & history
Last TLE update: 16 hours ago

TLE from 16 hours ago
0 STARLINK-11396
1 62015U 24213H   26035.93416861  .00350189  00000-0  27562-2 0  9990
2 62015  53.1565 202.5031 0001566  30.1990 329.9118 15.69874907 69772
Epoch: 2026-02-04T22:25Z
TLE epoch observation values (Epoch: 2026-02-04T22:25:12.167Z)
Latitude
-0.00004°
Longitude
91.10874°
Altitude
359.257 km
Speed
7.695 km/s
True Right ascension
13h 30m 00s
True Declination
0° 00' 00"
Sunlit
Object was in full shadow at epoch
Visualization orbit readout
Latitude
Unknown
Longitude
Unknown
Altitude
Unknown
Speed
Unknown
Apparent Right ascension
Unknown
Apparent Declination
Unknown
Sunlit
N/A
Visualization observer readout
Local Sidereal Time
16:45:56
Azimuth
Unknown
Elevation
Unknown
Doppler factor
Unknown
Orbital elements
Apogee altitude
360.571 km
Perigee altitude
358.461 km
Semi-major axis
6,737.653 km
Eccentricity
0.00016
Inclination
53.1565°
RAAN
202.5031°
Arg. of periapsis
30.199°
True anomaly
329.9028°
Mean anomaly
329.9118°
Eccentric anomaly
329.9073°
Mean motion
3.92446 °/min
Orbital period
91.73 mins
BSTAR
0.0027562
Loading maneuver chart data...
Computing Atmospheric mass density...
Loading historical data...
Loading historical data...
Loading historical data...
Loading historical data...
Loading historical data...
Loading historical data...
Loading historical data...

Documentation

Showing up to 5 results
|